This is the latest recevied weather packets stored in our database for station/object WX5HOT. If no packets are shown the sender has not sent any weather packets the latest 1 day(s).
| Time | Temp. | Humidity | Pressure | Rain* | Wind** | Luminosity | Snow |
|---|---|---|---|---|---|---|---|
| 1778031806 | 21.11° C | 99% | 1057 hPa | 0 mm | 1.79 m/s, 184° | 0 W/m² | - |
| 1778031503 | 21.11° C | 99% | 1057.1 hPa | 0 mm | 1.79 m/s, 182° | 0 W/m² | - |
| 1778031200 | 21.11° C | 99% | 1057.4 hPa | 0 mm | 2.24 m/s, 200° | 0 W/m² | - |
| 1778030897 | 21.11° C | 99% | 1057.1 hPa | 0 mm | 1.79 m/s, 188° | 0 W/m² | - |
| 1778030594 | 20.56° C | 99% | 1057.6 hPa | 0 mm | 1.79 m/s, 181° | 0 W/m² | - |
| 1778030291 | 20.56° C | 99% | 1057.5 hPa | 0 mm | 0.89 m/s, 180° | 0 W/m² | - |
| 1778029988 | 20.56° C | 99% | 1057.5 hPa | 0 mm | 1.34 m/s, 189° | 0 W/m² | - |
| 1778029685 | 20.56° C | 99% | 1057.3 hPa | 0 mm | 1.34 m/s, 191° | 1 W/m² | - |
| 1778029383 | 20.56° C | 99% | 1057 hPa | 0 mm | 1.34 m/s, 194° | 2 W/m² | - |
| 1778029080 | 20.56° C | 99% | 1057.1 hPa | 0 mm | 1.79 m/s, 194° | 2 W/m² | - |
| 1778028777 | 20.56° C | 99% | 1056.9 hPa | 0 mm | 1.79 m/s, 180° | 7 W/m² | - |
| 1778028472 | 20.56° C | 99% | 1056.9 hPa | 0 mm | 0.89 m/s, 183° | 10 W/m² | - |
| 1778028171 | 20.56° C | 99% | 1056.9 hPa | 0 mm | 1.34 m/s, 191° | 11 W/m² | - |
| 1778027866 | 20.56° C | 99% | 1056.8 hPa | 0 mm | 1.34 m/s, 186° | 9 W/m² | - |
| 1778027563 | 20.56° C | 99% | 1057 hPa | 0 mm | 1.34 m/s, 178° | 13 W/m² | - |
| 1778027259 | 20.56° C | 99% | 1056.9 hPa | 0 mm | 1.34 m/s, 180° | 15 W/m² | - |
| 1778026955 | 20.56° C | 99% | 1057.1 hPa | 0 mm | 1.34 m/s, 181° | 26 W/m² | - |
| 1778026651 | 20.56° C | 99% | 1057 hPa | 0 mm | 0.89 m/s, 194° | 24 W/m² | - |
| 1778026349 | 20.56° C | 99% | 1056.6 hPa | 0 mm | 0.89 m/s, 191° | 35 W/m² | - |
| 1778026045 | 20.56° C | 99% | 1056.6 hPa | 0 mm | 1.34 m/s, 182° | 49 W/m² | - |
| 1778025743 | 20.56° C | 99% | 1056.8 hPa | 0 mm | 1.34 m/s, 186° | 45 W/m² | - |
| 1778025440 | 20.56° C | 99% | 1056.6 hPa | 0 mm | 1.34 m/s, 184° | 36 W/m² | - |
| 1778025138 | 20.56° C | 99% | 1056.6 hPa | 0 mm | 1.34 m/s, 179° | 45 W/m² | - |
| 1778024834 | 20.56° C | 99% | 1056.5 hPa | 0 mm | 0.89 m/s, 183° | 18 W/m² | - |
| 1778024532 | 20.56° C | 99% | 1056.5 hPa | 0 mm | 1.34 m/s, 183° | 26 W/m² | - |
* Rain latest hour (hover to see other rain measurements)
** Current wind speed in m/s (hover to see current wind gust speed)